www.pogodaiklimat.ru

Погода и климат >> Архив погоды >> Бангладеш >> Chittagong


ПОГОДА в Chittagong

  • Прогноз погоды в Chittagong
  • Монитор погоды в Chittagong
  • Климат города

АРХИВ ПОГОДЫ в Chittagong

Время (UTC), дата Ветер
(напр.,м/с)
 
Видим.   Явления Облачность Т
(С)
Тd
(С)
f
(%)
Тe
(С)
Тes
(С)
Комфортность P
(гПа)
Po
(гПа)
Тmin
(С)
Tmax
(С)
R
(мм)
R24
(мм)
S
(см)
03 19.02 штиль 0 3100 м мгла ясно +23.2 +14.0 56 +27 +37 душно 1014.1 1013.5 +16.8
06 19.02 СВ 3 3500 м мгла ясно +29.5 +7.0 24 +28 +42 жарко 1013.4 1012.8
09 19.02 СЗ 5 3500 м мгла ясно +29.0 +12.0 35 +30 +33 жарко 1010.5 1009.8
12 19.02 СЗ 2 3500 м мгла ясно +25.0 +16.0 57 +28 +28 жарко 1010.8 1010.1 +30.2
15 19.02 СЗ 2 3500 м мгла ясно +22.8 +18.0 74 +28 +28 душно 1011.9 1011.3
18 19.02 штиль 0 3500 м мгла ясно +20.5 +19.0 91 +24 +24 комфорт 1012.1 1011.5
21 19.02 штиль 0 3100 м мгла ясно +19.3 +17.0 87 +21 +21 комфорт 1012.2 1011.6
00 20.02 В 2 3100 м мгла ясно +18.3 +16.0 86 +19 +19 1012.5 1011.9
03 20.02 С 5 3500 м мгла 4/0
[Ac trans]
+23.5 +15.0 59 +26 +29 жарко 1014.0 1013.4 +17.7
06 20.02 СЗ 3 4000 м мгла 4/0
[Ac trans]
+29.5 +12.0 34 +30 +41 жарко 1012.5 1011.9
09 20.02 СЗ 8 4000 м мгла 4/0
[Ac trans]
+29.5 +13.0 36 +31 +32 жарко 1009.4 1008.7
12 20.02 С 4 3500 м мгла 4/0
[Ac trans]
+27.2 +14.0 44 +29 +29 жарко 1009.6 1008.9 +31.0
15 20.02 СЗ 2 3500 м мгла 4/0
[Ac trans]
+25.8 +15.0 51 +29 +29 душно 1010.9 1010.3
18 20.02 штиль 0 3500 м мгла ясно +24.4 +17.0 63 +28 +28 душно 1010.9 1010.3
21 20.02 штиль 0 3500 м мгла ясно +21.2 +17.0 77 +25 +25 комфорт 1010.2 1009.6
00 21.02 штиль 0 3200 м мгла ясно +18.8 +17.0 89 +20 +20 1010.2 1009.6
03 21.02 штиль 0 1400 м мгла ясно +22.3 +17.0 72 +27 +38 душно 1012.1 1011.4 +18.2
06 21.02 штиль 0 3500 м мгла ясно +28.0 +17.0 51 +32 +53 опасность
солнечного
удара
1010.9 1010.3
09 21.02 З 2 4000 м мгла ясно +29.0 +13.0 37 +30 +37 жарко 1008.8 1008.2
12 21.02 штиль 0 3500 м мгла ясно +26.0 +18.0 61 +30 +30 душно 1008.3 1007.7 +30.5
15 21.02 штиль 0 3500 м мгла ясно +22.8 +20.0 84 +29 +29 очень
душно
1009.8 1009.2
18 21.02 штиль 0 3500 м мгла ясно +21.7 +19.0 85 +27 +27 душно 1010.1 1009.5
21 21.02 штиль 0 3200 м мгла ясно +20.6 +18.0 85 +24 +24 комфорт 1009.8 1009.2
00 22.02 штиль 0 1000 м мгла ясно +19.7 +19.0 96 +22 +22 комфорт 1009.8 1009.2
03 22.02 ЮВ 2 1800 м мгла {туман} ясно +22.8 +18.0 74 +28 +36 душно 1011.5 1010.8 +18.6
06 22.02 штиль 0 3100 м мгла {туман} ясно +27.0 +20.0 66 +33 +55 опасность
солнечного
удара
1011.1 1010.4
09 22.02 З 2 4000 м мгла ясно +28.0 +19.0 58 +33 +41 очень
душно
1008.3 1007.6
12 22.02 штиль 0 4000 м мгла ясно +25.0 +22.0 83 +32 +32 очень
душно
1008.5 1007.8 +28.6
15 22.02 штиль 0 3500 м мгла ясно +23.4 +21.0 86 +31 +31 очень
душно
1010.1 1009.4
18 22.02 штиль 0 3500 м мгла ясно +23.0 +21.0 89 +31 +31 очень
душно
1011.0 1010.4
21 22.02 штиль 0 3200 м мгла ясно +21.0 +20.0 94 +26 +26 душно 1010.5 1009.9
00 23.02 штиль 0 1400 м дымка 3/3 450 м
[Sc]
+20.2 +19.0 93 +24 +24 комфорт 1010.9 1010.2
03 23.02 штиль 0 2400 м мгла {туман} ясно +23.0 +19.0 78 +29 +40 очень
душно
1013.1 1012.4 +19.5
06 23.02 СЗ 4 3500 м мгла ясно +27.0 +19.0 62 +32 +43 очень
душно
1012.3 1011.7
12 23.02 ЮЗ 5 3200 м мгла ясно +25.0 +20.0 74 +31 +31 очень
душно
1010.4 1009.7 +28.0
15 23.02 штиль 0 3500 м мгла ясно +24.0 +23.0 94 +32 +32 очень
душно
1011.8 1011.2
18 23.02 штиль 0 400 м туман 4/4 540 м
[Sc]
+21.0 +20.0 94 +26 +26 душно 1012.4 1011.8
21 23.02 штиль 0 400 м туман 4/4 540 м
[Sc]
+21.4 +19.0 86 +26 +26 душно 1011.7 1011.1
00 24.02 штиль 0 400 м туман 4/4 540 м
[Sc]
+21.5 +21.0 97 +27 +27 душно 1013.6 1013.0
03 24.02 штиль 0 1600 м дымка {туман} ясно +22.5 +21.0 91 +29 +41 очень
душно
1016.0 1015.4 +20.6
09 24.02 СЗ 2 4000 м мгла ясно +30.4 +15.0 39 +33 +40 душно 1012.4 1011.7
12 24.02 штиль 0 3500 м мгла ясно +27.0 +19.0 62 +32 +32 очень
душно
1012.2 1011.6 +32.0
15 24.02 штиль 0 3500 м мгла ясно +23.3 +19.0 77 +30 +30 очень
душно
1013.2 1012.6
18 24.02 штиль 0 3500 м мгла ясно +21.7 +22.0 100 +28 +28 душно 1014.1 1013.5
21 24.02 штиль 0 3100 м мгла ясно +21.0 +19.0 88 +25 +25 комфорт 1013.2 1012.4
00 25.02 штиль 0 3100 м мгла ясно +19.0 +17.0 88 +20 +20 1013.1 1012.5
06 25.02 штиль 0 5000 м мгла ясно +31.8 +9.0 24 +31 +53 опасность
солнечного
удара
1013.5 1012.9
09 25.02 СЗ 3 4500 м мгла ясно +31.5 +11.0 28 +31 +38 жарко 1010.8 1010.2
12 25.02 штиль 0 3500 м мгла ясно +28.2 +15.0 45 +31 +31 душно 1010.7 1010.0 +32.0

 

Местоположение метеостанции Chittagong (Бангладеш): широта 22.27 долгота 91.82 высота над уровнем моря 6 м.

В архиве по умолчанию представлена погода в Chittagong за последнюю неделю. Архивные данные за месяц целиком и за предыдущие месяцы, начиная с января 2011 года, Вы можете получить, выбрав интересующий диапазон дат из раскрывающегося списка и нажав кнопку "Ввод!".

Внимание! Время в таблицах - всемирное. Для получения местного времени необходимо прибавить поправку, которая в Chittagong равна 6.5 ч.

Смотрите также архив погоды в соседних городах и на ближайших метеорологических станциях:

Погода в Sitakundu (Бангладеш) (37 км)
Погода в Sandwip (Бангладеш) (46 км)
Погода в Rangamati (Бангладеш) (49 км)
Погода в Kutubdia (Бангладеш) (50 км)
Погода в Hatia (Бангладеш) (76 км)
Погода в Feni (Бангладеш) (94 км)
Погода в Coxs Bazar (Бангладеш) (94 км)
Погода в Maijdicourt (Бангладеш) (100 км)
Погода в Bhola (Бангладеш) (129 км)
Погода в Comilla (Бангладеш) (145 км)

Пояснения к столбцам:

Ветер - указаны скорость ветра в м/с - средняя за 10 мин, порывы в срок и между сроками (в фигурных скобках) и направление, откуда дует ветер: С - северный, СВ - северо-восточный, В - восточный, ЮВ - юго-восточный, Ю - южный, ЮЗ - юго-западный, З - западный, СЗ - северо-западный.
Видимость - горизонтальная дальность видимости в метрах или километрах. При видимости от 1 до 10 км при отсутствии осадков обычно наблюдается дымка, при ухудшении видимости до 1 км и менее - туман. В сухую погоду видимость может ухудшаться дымом, пылью или мглою.
Явления - указаны атмосферные явления, наблюдавшиеся в срок или в последний час перед сроком; фигурными скобками обозначены явления, наблюдавшиеся между сроками (за 1-3 часа до срока); квадратными скобками обозначены град или гололедные отложения с указанием их диаметра в мм.
Облачность - указаны через наклонную черту общая и нижняя облачность в баллах и высота нижней границы облаков в метрах; квадратными скобками обозначены формы облаков: Ci - перистые, Cs - перисто-слоистые, Cc - перисто-кучевые, Ac - высококучевые, As - высокослоистые, Sc - слоисто-кучевые, Ns - слоисто-дождевые, Cu - кучевые, Cb - кучево-дождевые. Подробнее классификацию облаков см. в Атласе облаков (PDF).
T - Температура воздуха - температура, измеренная на высоте 2 м над землей.
Td - Температура точки росы - температура, при понижении до которой содержащийся в воздухе водяной пар достигнет насыщения.
f - Относительная влажность воздуха - влажноcть воздуха, измеренная на высоте 2 м над землей.
Te - Эффективная температура - температура, которую ощущает одетый по сезону человек в тени. Характеристика душности погоды. При расчете учитывается влияние влажности воздуха и скорости ветра на теплоощущения человека.
Tes - Эффективная температура на солнце - температура, которую ощущает человек, с поправкой на солнечный нагрев. Характеристика знойности погоды. Зависит от высоты солнца над горизонтом, облачности и скорости ветра. Ночью, в пасмурную погоду, а также при ветре 12 м/с и более поправка равна нулю.
P - Атмосферное давление - приведенное к уровню моря атмосферное давление.
Po - Атмосферное давление - измеренное на уровне метеостанции атмосферное давление.
Tmin - Минимальная температура - минимум температуры воздуха на высоте 2 м над землей.
Tmax - Максимальная температура - максимум температуры воздуха на высоте 2 м над землей.
R - Количество осадков - Количество выпавших осадков за период времени, мм. При наведении курсора мыши на число - период времени, за который выпало указанное количество осадков.
R24 - Количество осадков - Количество выпавших осадков за 24 часа, мм.
S - Снежный покров - Высота снежного покрова, см. При наведении курсора мыши на число - состояние снежного покрова и степень покрытия местности в баллах.